Regional Weather Roundup
Issued by NWS

Home | Current Version | Previous Version | Graphics & Text | Print | Product List | Glossary On
Versions: 1 2 3 4 5 6 7 8 9 10 11 12 13 14 15 16 17 18 19 20 21 22 23 24 25 26 27
000
ASUS45 KBOI 310310
RWRID

IDAHO REGIONAL WEATHER ROUNDUP
NATIONAL WEATHER SERVICE BOISE ID
900 PM MDT MON MAY 30 2016

NOTE: "FAIR" INDICATES FEW OR NO CLOUDS BELOW 12000 FEET
WITH NO SIGNIFICANT WEATHER AND/OR OBSTRUCTIONS TO VISIBILITY

IDZ012-014-310400-
SOUTHWEST IDAHO


CITY           SKY/WX    TMP DP  RH WIND       PRES   REMARKS
BOISE          CLEAR     71  28  20 W10       30.06S
CALDWELL       CLEAR     69  34  27 W7        30.06F
MOUNTAIN HOME  CLEAR     73  34  24 NW14      30.05S
$$

IDZ016-017-310400-
SOUTHCENTRAL IDAHO


CITY           SKY/WX    TMP DP  RH WIND       PRES   REMARKS
BURLEY         CLEAR     63  29  27 W9        30.06S
JEROME         CLEAR     63  26  24 W13       30.06S
TWIN FALLS     CLEAR     61  30  31 SW13      30.08S
$$

IDZ019>023-310400-
SOUTHEAST IDAHO


CITY           SKY/WX    TMP DP  RH WIND       PRES   REMARKS
IDAHO FALLS    CLEAR     61  34  36 SW7       30.06S
POCATELLO      CLEAR     61  30  31 S10       30.07F
REXBURG        CLEAR     63  34  33 S5        30.07R
$$

IDZ006-010-011-018-031-032-310400-
CENTRAL IDAHO MOUNTAINS


CITY           SKY/WX    TMP DP  RH WIND       PRES   REMARKS
MCCALL         CLEAR     59  26  28 N6        30.16R
HAILEY         CLEAR     57  39  51 S6        30.07R
STANLEY          N/A     58  28  32 W5        30.17R
SALMON         CLEAR     61  30  31 N7        30.08R
CHALLIS        CLEAR     62  25  24 N12       30.09R
$$

IDZ002-004-006-007-026-310400-
NORTHERN IDAHO


CITY           SKY/WX    TMP DP  RH WIND       PRES   REMARKS
LEWISTON       PTCLDY    70  30  22 N7        30.14S
LOWELL           N/A     57  44  62 N3        30.15R
COEUR D`ALENE  CLEAR     64  41  42 SW5       30.13S
MULLAN PASS    CLEAR     47  29  49 NW5       30.24S
$$




USA.gov is the U.S. government's official web portal to all federal, state and local government web resources and services.